TimeMDT,TemperatureF,Dew PointF,Humidity,Sea Level PressureIn,VisibilityMPH,Wind Direction,Wind SpeedMPH,Gust SpeedMPH,PrecipitationIn,Events,Conditions,WindDirDegrees,DateUTC
12:53 AM,66.9,46.0,47,29.80,10.0,SSE,4.6,-,N/A,,Clear,150,2013-07-28 06:53:00
1:53 AM,63.0,46.0,54,29.80,10.0,SSE,6.9,-,N/A,,Clear,150,2013-07-28 07:53:00
2:53 AM,61.0,48.0,62,29.78,10.0,Calm,Calm,-,N/A,,Clear,0,2013-07-28 08:53:00
3:53 AM,59.0,45.0,60,29.78,10.0,Calm,Calm,-,N/A,,Clear,0,2013-07-28 09:53:00
4:53 AM,62.1,46.9,58,29.78,10.0,SE,6.9,-,N/A,,Clear,130,2013-07-28 10:53:00
5:53 AM,57.9,48.0,70,29.79,10.0,Calm,Calm,-,N/A,,Mostly Cloudy,0,2013-07-28 11:53:00
6:53 AM,61.0,50.0,67,29.79,10.0,SW,3.5,-,N/A,,Overcast,230,2013-07-28 12:53:00
7:53 AM,64.0,48.0,56,29.79,10.0,Calm,Calm,-,N/A,,Mostly Cloudy,0,2013-07-28 13:53:00
8:53 AM,66.9,48.0,51,29.79,10.0,WSW,4.6,-,N/A,,Partly Cloudy,250,2013-07-28 14:53:00
11:53 AM,80.1,46.9,31,29.75,10.0,NW,6.9,-,N/A,,Clear,320,2013-07-28 17:53:00
12:53 PM,82.9,44.1,25,29.73,10.0,Variable,3.5,-,N/A,,Clear,0,2013-07-28 18:53:00
1:53 PM,82.9,43.0,24,29.72,10.0,Calm,Calm,-,N/A,,Clear,0,2013-07-28 19:53:00
2:53 PM,87.1,41.0,20,29.69,10.0,Variable,5.8,-,N/A,,Clear,0,2013-07-28 20:53:00
3:53 PM,86.0,39.9,20,29.68,10.0,NW,8.1,-,N/A,,Clear,320,2013-07-28 21:53:00
4:16 PM,84.2,42.8,23,29.83,10.0,NNW,20.7,31.1,N/A,Thunderstorm,Partly Cloudy,330,2013-07-28 22:16:00
4:53 PM,75.9,43.0,31,29.76,10.0,NW,26.5,39.1,0.00,Thunderstorm,Overcast,320,2013-07-28 22:53:00
5:34 PM,78.8,42.8,28,29.85,10.0,NNE,12.7,21.9,0.00,Rain,Light Rain,30,2013-07-28 23:34:00
5:53 PM,80.1,43.0,27,29.74,10.0,North,11.5,-,0.00,,Scattered Clouds,10,2013-07-28 23:53:00
6:53 PM,79.0,42.1,27,29.75,10.0,Variable,3.5,-,N/A,,Mostly Cloudy,0,2013-07-29 00:53:00
7:53 PM,70.0,54.0,57,29.79,10.0,NNW,17.3,31.1,N/A,,Partly Cloudy,330,2013-07-29 01:53:00
8:53 PM,66.9,50.0,54,29.80,10.0,ESE,6.9,-,N/A,,Clear,120,2013-07-29 02:53:00
9:53 PM,66.0,51.1,59,29.81,10.0,Calm,Calm,-,N/A,,Clear,0,2013-07-29 03:53:00
10:53 PM,62.1,53.1,72,29.82,10.0,SW,3.5,-,N/A,,Clear,230,2013-07-29 04:53:00